Weather History for KAUO - November, 2012

Change the Weather History Date:

Thursday, November 15, 2012

  Actual Average Record
Temperature  
Mean Temperature 48 °F -  
Max Temperature 52 °F - 83 °F (1978)
Min Temperature 44 °F - 19 °F (1969)
Degree Days  
Heating Degree Days 18    
Month to date heating degree days 116  
Since 1 July heating degree days 183  
Moisture  
Dew Point 39 °F    
Average Humidity 73    
Maximum Humidity 81    
Minimum Humidity 62    
Precipitation  
Precipitation 0.00 in - 2.12 in (2006)
Month to date precipitation 0.92  
Year to date precipitation 23.05  
Sea Level Pressure  
Sea Level Pressure 30.23 in    
Wind  
Wind Speed 6 mph (NE)    
Max Wind Speed 12 mph    
Max Gust Speed -    
Visibility 10 miles    
Events      
T = Trace of Precipitation, MM = Missing Value Source: NWS Daily Summary

Daily Weather History Graph

Daily Weather History Graph

Search for Another Location

Airport or City:

Trip Planner

Search our weather history database for the weather conditions in past years. The results will help you decide how hot, cold, wet, or windy it might be!

Date:

Astronomy

Nov. 15, 2012 Rise Set
Actual Time 6:12 AM CST 4:40 PM CST
Civil Twilight 5:45 AM CST 5:06 PM CST
Nautical Twilight 5:16 AM CST 5:36 PM CST
Astronomical Twilight 4:46 AM CST 6:05 PM CST
Moon 8:03 AM CST (11/15) 6:34 PM CST (11/15)
Length of Visible Light 11h 20m
Length of Day
10h 28m
Waxing Crescent, 5% of the Moon is Illuminated
Nov 15
Waxing Crescent
Nov 20
First Quarter
Nov 28
Full
Dec 6
Last Quarter
Dec 13
New

Hourly Weather History & Observations

Time (CST) Temp. Windchill Dew Point Humidity Pressure Visibility Wind Dir Wind Speed Gust Speed Precip Events Conditions
9:35 AM 46.4 °F 42.9 °F 39.2 °F 76% 30.27 in 10.0 mi ENE 6.9 mph - N/A   Overcast
9:55 AM 46.4 °F 42.9 °F 39.2 °F 76% 30.27 in 10.0 mi NE 6.9 mph - N/A   Overcast
10:15 AM 46.4 °F 42.9 °F 39.2 °F 76% 30.26 in 10.0 mi ENE 6.9 mph - N/A   Overcast
10:35 AM 48.2 °F - 39.2 °F 71% 30.25 in 10.0 mi NE 11.5 mph - N/A   Overcast
10:55 AM 48.2 °F - 39.2 °F 71% 30.25 in 10.0 mi North 8.1 mph - N/A   Overcast
11:15 AM 48.2 °F - 39.2 °F 71% 30.25 in 10.0 mi NE 5.8 mph - N/A   Overcast
11:35 AM 48.2 °F - 39.2 °F 71% 30.24 in 10.0 mi ENE 3.5 mph - N/A   Overcast
11:55 AM 48.2 °F - 39.2 °F 71% 30.24 in 10.0 mi Calm Calm - N/A   Overcast
12:15 PM 50.0 °F - 39.2 °F 66% 30.23 in 10.0 mi ENE 5.8 mph - N/A   Overcast
12:35 PM 51.8 °F - 39.2 °F 62% 30.22 in 10.0 mi NE 6.9 mph - N/A   Overcast
12:55 PM 51.8 °F - 39.2 °F 62% 30.21 in 10.0 mi NNE 4.6 mph - N/A   Overcast
1:15 PM 51.8 °F - 39.2 °F 62% 30.21 in 10.0 mi NNE 6.9 mph - N/A   Overcast
1:35 PM 51.8 °F - 39.2 °F 62% 30.21 in 10.0 mi NNE 6.9 mph - N/A   Overcast
1:55 PM 51.8 °F - 39.2 °F 62% 30.21 in 10.0 mi NE 9.2 mph - N/A   Overcast
2:15 PM 51.8 °F - 39.2 °F 62% 30.21 in 10.0 mi North 6.9 mph - N/A   Overcast
2:35 PM 51.8 °F - 39.2 °F 62% 30.21 in 10.0 mi NNE 9.2 mph - N/A   Overcast
2:55 PM 51.8 °F - 39.2 °F 62% 30.21 in 10.0 mi NE 9.2 mph - N/A   Overcast
3:15 PM 51.8 °F - 39.2 °F 62% 30.21 in 10.0 mi NE 6.9 mph - N/A   Overcast
3:35 PM 50.0 °F - 39.2 °F 66% 30.21 in 10.0 mi NE 4.6 mph - N/A   Mostly Cloudy
3:55 PM 50.0 °F - 39.2 °F 66% 30.21 in 10.0 mi NNE 6.9 mph - N/A   Mostly Cloudy
4:15 PM 48.2 °F - 39.2 °F 71% 30.21 in 10.0 mi NNE 4.6 mph - N/A   Mostly Cloudy
4:35 PM 48.2 °F - 39.2 °F 71% 30.21 in 10.0 mi NNE 3.5 mph - N/A   Partly Cloudy
4:55 PM 46.4 °F 45.2 °F 39.2 °F 76% 30.21 in 10.0 mi NE 3.5 mph - N/A   Mostly Cloudy
5:15 PM 46.4 °F - 39.2 °F 76% 30.21 in 10.0 mi Calm Calm - N/A   Mostly Cloudy
5:35 PM 46.4 °F - 39.2 °F 76% 30.22 in 10.0 mi Calm Calm - N/A   Overcast
5:55 PM 46.4 °F - 39.2 °F 76% 30.22 in 10.0 mi Calm Calm - N/A   Overcast
6:15 PM 44.6 °F - 39.2 °F 81% 30.22 in 10.0 mi Calm Calm - N/A   Overcast
6:35 PM 46.4 °F 45.2 °F 39.2 °F 76% 30.21 in 10.0 mi ESE 3.5 mph - N/A   Overcast
6:55 PM 46.4 °F - 39.2 °F 76% 30.22 in 10.0 mi Calm Calm - N/A   Overcast
7:15 PM 46.4 °F - 39.2 °F 76% 30.23 in 10.0 mi Calm Calm - N/A   Overcast
7:35 PM 46.4 °F 45.2 °F 39.2 °F 76% 30.23 in 10.0 mi ENE 3.5 mph - N/A   Overcast
7:55 PM 46.4 °F 45.2 °F 39.2 °F 76% 30.23 in 10.0 mi ENE 3.5 mph - N/A   Scattered Clouds
8:15 PM 44.6 °F 43.1 °F 39.2 °F 81% 30.23 in 10.0 mi ENE 3.5 mph - N/A   Clear
8:35 PM 44.6 °F - 39.2 °F 81% 30.23 in 10.0 mi Calm Calm - N/A   Scattered Clouds
8:55 PM 46.4 °F 44.3 °F 41.0 °F 81% 30.24 in 10.0 mi NE 4.6 mph - N/A   Overcast
9:15 PM 46.4 °F 44.3 °F 41.0 °F 81% 30.23 in 10.0 mi NE 4.6 mph - N/A   Overcast
9:35 PM 46.4 °F 45.2 °F 41.0 °F 81% 30.23 in 10.0 mi ENE 3.5 mph - N/A   Overcast
9:55 PM 46.4 °F 45.2 °F 41.0 °F 81% 30.23 in 10.0 mi ENE 3.5 mph - N/A   Overcast
10:15 PM 46.4 °F 43.5 °F 39.2 °F 76% 30.23 in 10.0 mi ENE 5.8 mph - N/A   Overcast
10:35 PM 48.2 °F - 41.0 °F 76% 30.23 in 10.0 mi East 4.6 mph - N/A   Overcast
10:55 PM 46.4 °F 41.9 °F 39.2 °F 76% 30.23 in 10.0 mi East 9.2 mph - N/A   Overcast
11:15 PM 46.4 °F 43.5 °F 39.2 °F 76% 30.23 in 10.0 mi ENE 5.8 mph - N/A   Overcast
11:35 PM 46.4 °F 43.5 °F 41.0 °F 81% 30.22 in 10.0 mi East 5.8 mph - N/A   Overcast
11:55 PM 46.4 °F 42.9 °F 41.0 °F 81% 30.23 in 10.0 mi East 6.9 mph - N/A   Overcast